Canby, MN

1:18 PM CDT on August 24, 2016 (GMT -0500)
Canby

Weather History for KCNB - March, 2013

Change the Weather History Date:

Friday, March 29, 2013

  Actual Average (KMML) Record (KMML)
Temperature  
Mean Temperature 44 °F -  
Max Temperature 58 °F 45 °F 76 °F (1968)
Min Temperature 30 °F 27 °F -8 °F (1969)
Degree Days  
Heating Degree Days 21    
Moisture  
Dew Point 37 °F    
Average Humidity 87    
Maximum Humidity 100    
Minimum Humidity 56    
Precipitation  
Precipitation 0.00 in - - ()
Sea Level Pressure  
Sea Level Pressure 30.11 in    
Wind  
Wind Speed 1 mph (SSE)    
Max Wind Speed 9 mph    
Max Gust Speed 17 mph    
Visibility 5 miles    
Events      
Averages and records for this station are not official NWS values.
T = Trace of Precipitation, MM = Missing Value Source: NWS Daily Summary

Daily Weather History Graph

Daily Weather History Graph

Search for Another Location

Airport or City:

Trip Planner

Search our weather history database for the weather conditions in past years. The results will help you decide how hot, cold, wet, or windy it might be!

Date:

Astronomy

Mar. 29, 2013 Rise Set
Actual Time 7:10 AM CDT 7:49 PM CDT
Civil Twilight 6:41 AM CDT 8:18 PM CDT
Nautical Twilight 6:06 AM CDT 8:53 PM CDT
Astronomical Twilight 5:30 AM CDT 9:29 PM CDT
Moon 10:59 PM CDT (3/29) 8:13 AM CDT (3/29)
Length of Visible Light 13h 37m
Length of Day
12h 38m
Waning Gibbous, 93% of the Moon is Illuminated
Mar 29
Waning Gibbous
Apr 2
Last Quarter
Apr 10
New
Apr 18
First Quarter
Apr 25
Full

Hourly Weather History & Observations

Time (CDT) Temp. Windchill Dew Point Humidity Pressure Visibility Wind Dir Wind Speed Gust Speed Precip Events Conditions
12:17 AM 30.4 °F - 30.2 °F 99% 30.20 in 2.5 mi Calm Calm - N/A   Clear
12:36 AM 30.4 °F - 30.0 °F 99% 30.20 in 2.5 mi Calm Calm - N/A   Clear
12:56 AM 30.4 °F - 30.2 °F 99% 30.21 in 2.5 mi Calm Calm - N/A   Clear
1:16 AM 30.2 °F - 30.2 °F 100% 30.21 in 2.5 mi Calm Calm - N/A   Clear
1:36 AM 30.4 °F - 30.2 °F 99% 30.21 in 2.5 mi Calm Calm - N/A   Mostly Cloudy
1:57 AM 30.0 °F - 29.8 °F 99% 30.21 in 3.0 mi Calm Calm - N/A   Overcast
2:16 AM 31.1 °F - 31.1 °F 100% 30.21 in 2.5 mi Calm Calm - N/A   Overcast
2:36 AM 30.9 °F - 30.7 °F 99% 30.21 in 2.5 mi Calm Calm - N/A   Overcast
2:57 AM 31.1 °F - 31.1 °F 100% 30.20 in 3.0 mi Calm Calm - N/A   Mostly Cloudy
3:16 AM 31.5 °F - 31.1 °F 99% 30.20 in 3.0 mi Calm Calm - N/A   Mostly Cloudy
3:36 AM 32.0 °F - 31.8 °F 99% 30.20 in 3.0 mi Calm Calm - N/A   Overcast
3:56 AM 31.3 °F - 31.1 °F 99% 30.19 in 3.0 mi Calm Calm - N/A   Overcast
4:17 AM 31.1 °F - 31.1 °F 100% 30.20 in 2.5 mi Calm Calm - N/A   Overcast
4:36 AM 30.6 °F - 30.2 °F 99% 30.19 in 2.5 mi Calm Calm - N/A   Overcast
4:56 AM 30.9 °F - 30.9 °F 100% 30.19 in 2.5 mi Calm Calm - N/A   Overcast
5:16 AM 31.3 °F - 31.3 °F 100% 30.18 in 2.5 mi Calm Calm - N/A   Overcast
5:36 AM 30.9 °F - 30.9 °F 100% 30.18 in 2.0 mi Calm Calm - N/A   Overcast
5:56 AM 31.5 °F - 31.5 °F 100% 30.18 in 2.5 mi Calm Calm - N/A   Mostly Cloudy
6:16 AM 32.0 °F - 32.0 °F 100% 30.18 in 3.0 mi Calm Calm - N/A   Overcast
6:37 AM 32.7 °F - 32.4 °F 99% 30.18 in 4.0 mi Calm Calm - N/A   Overcast
6:56 AM 32.4 °F - 32.0 °F 99% 30.18 in 3.0 mi Calm Calm - N/A   Overcast
7:16 AM 32.0 °F - 31.8 °F 99% 30.18 in 1.8 mi Calm Calm - N/A   Overcast
7:36 AM 32.0 °F - 32.0 °F 100% 30.18 in 1.8 mi Calm Calm - N/A   Overcast
7:56 AM 32.0 °F - 32.0 °F 100% 30.18 in 1.8 mi Calm Calm - N/A   Overcast
8:16 AM 32.4 °F - 32.2 °F 99% 30.18 in 1.8 mi Calm Calm - N/A   Mostly Cloudy
8:36 AM 32.7 °F - 32.4 °F 99% 30.18 in 1.8 mi Calm Calm - N/A   Mostly Cloudy
8:56 AM 34.0 °F - 33.4 °F 98% 30.18 in 3.0 mi Calm Calm - N/A   Mostly Cloudy
9:17 AM 34.9 °F - 34.0 °F 97% 30.18 in 3.0 mi Calm Calm - N/A   Scattered Clouds
9:36 AM 36.0 °F - 34.2 °F 93% 30.18 in 4.0 mi Calm Calm - N/A   Scattered Clouds
9:57 AM 36.7 °F - 34.3 °F 91% 30.17 in 5.0 mi Calm Calm - N/A   Scattered Clouds
10:16 AM 38.1 °F - 35.2 °F 89% 30.17 in 5.0 mi Calm Calm - N/A   Clear
10:36 AM 40.1 °F - 36.5 °F 87% 30.17 in 5.0 mi Calm Calm - N/A   Clear
10:57 AM 41.4 °F - 37.0 °F 85% 30.17 in 7.0 mi Calm Calm - N/A   Clear
11:16 AM 42.8 °F - 38.5 °F 85% 30.16 in 7.0 mi Calm Calm - N/A   Clear
11:56 AM 45.7 °F 42.0 °F 40.6 °F 83% 30.15 in 7.0 mi SE 6.9 mph - N/A   Clear
12:16 PM 47.3 °F - 42.1 °F 82% 30.15 in 7.0 mi SE 5.8 mph - N/A   Clear
12:36 PM 49.3 °F - 43.0 °F 79% 30.14 in 10.0 mi ESE 3.5 mph - N/A   Clear
12:56 PM 50.5 °F - 44.1 °F 78% 30.13 in 7.0 mi Calm Calm - N/A   Clear
1:16 PM 52.3 °F - 43.7 °F 72% 30.12 in 10.0 mi SE 5.8 mph - N/A   Scattered Clouds
1:36 PM 54.0 °F - 42.4 °F 65% 30.12 in 10.0 mi SSE 5.8 mph - N/A   Mostly Cloudy
1:56 PM 55.2 °F - 41.2 °F 59% 30.11 in 10.0 mi SSW 8.1 mph - N/A   Scattered Clouds
2:17 PM 55.4 °F - 41.4 °F 59% 30.10 in 10.0 mi South 8.1 mph 16.1 mph N/A   Clear
2:37 PM 55.9 °F - 41.7 °F 59% 30.09 in 10.0 mi South 9.2 mph 17.3 mph N/A   Clear
2:57 PM 56.3 °F - 42.4 °F 60% 30.08 in 10.0 mi South 8.1 mph - N/A   Clear
3:16 PM 56.8 °F - 42.6 °F 59% 30.07 in 10.0 mi SSE 8.1 mph - N/A   Clear
3:36 PM 56.8 °F - 42.6 °F 59% 30.06 in 10.0 mi South 6.9 mph - N/A   Clear
3:57 PM 57.2 °F - 42.6 °F 58% 30.05 in 10.0 mi SSE 8.1 mph - N/A   Clear
4:17 PM 57.4 °F - 43.9 °F 61% 30.04 in 10.0 mi SSE 5.8 mph - N/A   Clear
4:36 PM 58.1 °F - 43.0 °F 57% 30.03 in 10.0 mi SSE 6.9 mph - N/A   Clear
4:56 PM 57.9 °F - 43.3 °F 58% 30.03 in 10.0 mi South 5.8 mph - N/A   Clear
5:17 PM 58.1 °F - 42.3 °F 56% 30.03 in 10.0 mi SSE 4.6 mph - N/A   Clear
5:36 PM 57.0 °F - 44.4 °F 63% 30.02 in 10.0 mi SE 5.8 mph - N/A   Clear
5:56 PM 56.3 °F - 45.5 °F 67% 30.01 in 10.0 mi Calm Calm - N/A   Clear
6:16 PM 55.6 °F - 45.9 °F 70% 30.00 in 10.0 mi Calm Calm - N/A   Clear
6:36 PM 53.4 °F - 45.5 °F 75% 30.00 in 10.0 mi Calm Calm - N/A   Clear
6:57 PM 50.7 °F - 43.5 °F 76% 30.00 in 7.0 mi SE 5.8 mph - N/A   Clear
7:16 PM 49.3 °F - 42.8 °F 78% 29.99 in 10.0 mi Calm Calm - N/A   Clear
7:36 PM 48.2 °F - 41.9 °F 79% 29.99 in 7.0 mi Calm Calm - N/A   Clear
7:56 PM 46.9 °F - 41.2 °F 80% 29.99 in 7.0 mi Calm Calm - N/A   Clear
8:16 PM 40.3 °F - 39.0 °F 95% 29.98 in 2.5 mi Calm Calm - N/A   Clear
8:37 PM 39.6 °F - 38.8 °F 97% 29.98 in 2.0 mi Calm Calm - N/A   Scattered Clouds
8:57 PM 38.5 °F - 37.8 °F 97% 29.99 in 2.0 mi Calm Calm - N/A   Mostly Cloudy
9:16 PM 37.4 °F - 36.9 °F 98% 29.99 in 2.0 mi Calm Calm - N/A   Overcast
9:36 PM 36.9 °F - 36.5 °F 99% 29.99 in 3.0 mi Calm Calm - N/A   Mostly Cloudy
9:57 PM 36.0 °F - 35.6 °F 99% 29.99 in 2.5 mi Calm Calm - N/A   Scattered Clouds
10:16 PM 35.6 °F - 35.1 °F 98% 29.98 in 2.5 mi Calm Calm - N/A   Clear
10:36 PM 36.1 °F - 35.8 °F 99% 29.98 in 3.0 mi Calm Calm - N/A   Mostly Cloudy
10:57 PM 36.0 °F - 35.6 °F 99% 29.96 in 3.0 mi Calm Calm - N/A   Scattered Clouds
11:16 PM 34.9 °F - 34.3 °F 98% 29.95 in 2.5 mi Calm Calm - N/A   Clear
11:36 PM 35.1 °F - 34.7 °F 99% 29.94 in 2.5 mi Calm Calm - N/A   Clear
11:57 PM 43.3 °F 39.9 °F 37.8 °F 81% 29.92 in 10.0 mi SE 5.8 mph - N/A   Mostly Cloudy